Location: Alpha Ridge Park
(39.3209°N, 76.9128°W)
Time: 16:04:38
(UTC-04:00)

Hubble Space Telescope - Visible Passes

Search period start: 23 April 2019 00:00
Search period end: 03 May 2019 00:00
Orbit: 537 x 540 km, 28.5° (Epoch: 22 April)

Date Brightness Start Highest point End Pass type
(mag) Time Alt. Az. Time Alt. Az. Time Alt. Az.
23 Apr 3.2 05:42:39 10° S 05:43:32 11° SSE 05:44:27 10° SSE visible
24 Apr 3.1 05:31:11 10° S 05:32:54 12° SSE 05:34:37 10° SE visible
25 Apr 3.0 05:20:06 10° SSW 05:22:16 14° SSE 05:24:26 10° SE visible
26 Apr 2.8 05:09:46 12° SSW 05:11:38 15° S 05:14:06 10° SE visible
27 Apr 2.6 04:59:43 14° SSW 05:01:01 16° S 05:03:41 10° SE visible
28 Apr 2.5 04:49:42 17° S 04:50:24 17° S 04:53:11 10° SE visible
29 Apr 2.5 04:39:42 18° S 04:39:48 18° S 04:42:38 10° SE visible
30 Apr 2.6 04:29:45 18° S 04:29:45 18° S 04:32:03 10° SE visible
01 May 2.8 04:19:52 16° SSE 04:19:52 16° SSE 04:21:24 10° SE visible
02 May 3.1 04:10:06 12° SSE 04:10:06 12° SSE 04:10:43 10° SE visible
